CW0230 Weather Reports


Display with metric or nautical units.
time (UTC)temp
F
wind
direction
speed
MPH
gust
MPH
rain 1hr
in
rain 24hr
in
rain mn
in
humidity
%
barometer
mb
20211208221845 44 216 5.0 12.0 0.00 0.01 0.01 76 1001.2
20211208221345 44 248 4.0 12.0 0.00 0.01 0.01 77 1001.2
20211208220346 44 274 2.0 13.0 0.00 0.01 0.01 77 1001.2
20211208215844 44 249 3.0 13.0 0.00 0.01 0.01 78 1001.2
20211208215345 44 238 4.0 13.0 0.00 0.01 0.01 79 1001.2
20211208214345 44 245 4.0 10.0 0.00 0.01 0.01 80 1001.2
20211208213845 44 240 3.0 12.0 0.00 0.01 0.01 80 1001.1
20211208213346 44 233 3.0 12.0 0.00 0.01 0.01 80 1001.0
20211208212845 44 231 4.0 12.0 0.00 0.01 0.01 81 1000.9
20211208210347 44 250 0.0 8.0 0.00 0.01 0.01 78 1000.6
20211208205848 44 256 0.0 0.0 0.00 0.01 0.01 78 1000.6
20211208205344 44 249 0.0 6.0 0.00 0.01 0.01 77 1000.6
20211208204845 44 223 0.0 9.0 0.00 0.01 0.01 77 1000.5
20211208203845 44 224 2.0 8.0 0.00 0.01 0.01 77 1000.3
20211208202344 44 234 4.0 9.0 0.00 0.01 0.01 77 1000.0
20211208201846 44 217 3.0 10.0 0.00 0.01 0.01 77 999.9
20211208201344 44 232 2.0 10.0 0.00 0.01 0.01 77 1000.1
20211208200345 44 259 1.0 8.0 0.00 0.01 0.01 77 999.9
20211208194845 44 254 2.0 9.0 0.00 0.01 0.01 76 999.7
20211208194344 44 245 3.0 9.0 0.00 0.01 0.01 77 999.7
20211208193845 44 234 5.0 9.0 0.00 0.01 0.01 77 999.6
20211208193345 44 237 4.0 9.0 0.00 0.01 0.01 77 999.6
20211208192845 43 243 2.0 9.0 0.00 0.01 0.01 77 999.5
20211208192345 43 239 3.0 9.0 0.00 0.01 0.01 78 999.5
20211208191845 43 218 3.0 9.0 0.00 0.01 0.01 77 999.4
20211208190846 43 206 2.0 12.0 0.00 0.01 0.01 77 999.3
20211208185845 43 210 4.0 9.0 0.00 0.01 0.01 77 999.1
20211208185345 43 217 2.0 8.0 0.00 0.01 0.01 77 999.0
20211208184344 43 202 2.0 12.0 0.00 0.01 0.01 77 998.8
20211208183845 43 221 3.0 12.0 0.00 0.01 0.01 76 998.7
20211208183345 43 180 3.0 10.0 0.00 0.01 0.01 76 998.5
20211208182846 43 212 2.0 10.0 0.00 0.01 0.01 76 998.5
20211208182344 43 225 2.0 15.0 0.00 0.01 0.01 76 998.5
20211208181845 43 208 5.0 15.0 0.00 0.01 0.01 76 998.5
20211208181345 43 223 6.0 15.0 0.00 0.01 0.01 76 998.5
20211208180845 43 210 4.0 10.0 0.00 0.01 0.01 75 998.5
20211208175845 44 250 2.0 12.0 0.00 0.01 0.01 75 998.4
20211208175345 44 216 5.0 12.0 0.00 0.01 0.01 75 998.3
20211208174846 44 220 4.0 12.0 0.00 0.01 0.01 75 998.2
20211208174344 44 212 5.0 12.0 0.00 0.01 0.01 75 998.2
20211208173845 44 238 4.0 12.0 0.00 0.01 0.01 75 998.2
20211208171846 44 220 6.0 14.0 0.00 0.01 0.01 74 997.9
20211208171344 44 214 5.0 12.0 0.00 0.01 0.01 74 998.0
20211208170846 44 221 5.0 12.0 0.00 0.01 0.01 73 998.0
20211208170346 44 205 5.0 12.0 0.00 0.01 0.01 73 997.9
20211208165845 44 224 5.0 12.0 0.00 0.01 0.01 73 997.9
20211208164846 44 217 4.0 12.0 0.00 0.01 0.01 73 997.9
20211208164345 44 237 6.0 12.0 0.00 0.01 0.01 73 997.8
20211208163344 44 205 6.0 12.0 0.00 0.01 0.01 72 997.7
20211208162848 44 241 5.0 13.0 0.00 0.01 0.01 72 997.7
20211208162345 44 218 6.0 13.0 0.00 0.01 0.01 72 997.5
20211208161344 44 208 7.0 13.0 0.00 0.01 0.01 72 997.3
20211208160345 44 230 2.0 14.0 0.00 0.01 0.01 71 997.1
20211208155344 45 200 7.0 15.0 0.00 0.01 0.01 71 996.9
20211208154846 45 223 6.0 15.0 0.00 0.01 0.01 70 996.9
20211208153845 45 236 7.0 16.0 0.00 0.01 0.01 71 996.9
20211208152848 45 237 9.0 16.0 0.00 0.01 0.01 71 996.5
20211208152345 46 229 7.0 14.0 0.00 0.01 0.01 71 996.4
20211208151846 46 246 5.0 14.0 0.00 0.01 0.01 71 996.4
20211208151352 46 228 6.0 14.0 0.00 0.01 0.01 70 996.1
20211208150845 46 244 6.0 13.0 0.00 0.01 0.01 70 996.1
20211208145847 46 202 5.0 21.0 0.00 0.01 0.01 69 996.0
20211208144845 47 242 6.0 15.0 0.00 0.01 0.01 68 995.7
20211208144345 47 228 5.0 15.0 0.00 0.01 0.01 68 995.8
20211208143846 47 241 6.0 15.0 0.00 0.01 0.01 68 995.6
20211208142848 47 219 4.0 20.0 0.00 0.02 0.01 68 995.7
20211208142344 47 230 5.0 20.0 0.00 0.03 0.01 69 995.7
20211208141845 47 222 5.0 18.0 0.00 0.06 0.01 68 995.5
20211208141345 48 231 7.0 18.0 0.00 0.06 0.01 67 995.3
20211208134846 48 242 8.0 20.0 0.00 0.09 0.01 69 995.1
20211208134344 48 233 6.0 20.0 0.00 0.10 0.01 70 995.1
20211208133346 47 213 6.0 14.0 0.00 0.11 0.01 71 995.0
20211208132848 47 240 6.0 14.0 0.00 0.11 0.01 72 994.9
20211208131846 47 219 5.0 17.0 0.00 0.13 0.01 73 994.8
20211208130345 46 212 6.0 13.0 0.00 0.14 0.01 77 994.6
20211208125345 46 215 5.0 20.0 0.00 0.15 0.01 77 994.4
20211208124846 46 222 6.0 20.0 0.00 0.16 0.01 76 994.3
20211208123346 47 209 7.0 13.0 0.00 0.17 0.01 73 994.0
20211208122847 46 233 4.0 18.0 0.00 0.18 0.01 74 994.0
20211208122344 46 233 9.0 18.0 0.00 0.19 0.01 75 993.9
20211208121345 46 242 7.0 20.0 0.00 0.20 0.01 76 993.8
20211208120345 47 238 7.0 17.0 0.00 0.23 0.01 75 993.7
20211208115847 47 214 5.0 16.0 0.00 0.23 0.01 74 993.6
20211208114344 46 216 8.0 23.0 0.00 0.25 0.01 74 993.4
20211208113346 46 212 4.0 15.0 0.00 0.28 0.01 74 993.3
20211208112848 46 238 7.0 16.0 0.00 0.28 0.01 73 993.3
20211208112344 46 248 8.0 16.0 0.00 0.28 0.01 73 993.3
20211208111846 46 235 9.0 21.0 0.00 0.28 0.01 73 993.1
20211208111344 46 241 6.0 21.0 0.00 0.28 0.01 73 993.0
20211208110345 46 232 8.0 18.0 0.00 0.28 0.01 72 993.0
20211208105847 47 232 7.0 20.0 0.01 0.28 0.01 73 992.9
20211208105345 46 244 6.0 20.0 0.01 0.28 0.01 73 992.8
20211208104344 46 226 9.0 16.0 0.01 0.28 0.01 74 992.7
20211208103345 46 209 8.0 18.0 0.01 0.30 0.01 74 992.5
20211208102847 46 218 7.0 21.0 0.01 0.30 0.01 74 992.5
20211208102345 45 224 4.0 21.0 0.01 0.30 0.01 74 992.3
20211208101344 45 226 5.0 15.0 0.01 0.30 0.01 74 992.1
20211208100846 45 245 3.0 18.0 0.01 0.30 0.01 74 992.1
20211208100345 45 244 7.0 18.0 0.01 0.30 0.01 74 992.0
20211208095344 45 240 7.0 15.0 0.00 0.29 0.00 75 991.9
20211208094344 45 210 9.0 18.0 0.00 0.29 0.00 75 991.8
20211208093845 45 225 5.0 16.0 0.00 0.29 0.00 75 991.6
20211208093345 44 228 7.0 16.0 0.00 0.29 0.00 75 991.7
20211208092847 44 238 6.0 16.0 0.00 0.29 0.00 75 991.6
20211208092345 44 246 6.0 15.0 0.00 0.30 0.00 75 991.4
20211208091345 44 227 7.0 16.0 0.00 0.30 0.00 75 991.3
20211208090845 44 212 6.0 16.0 0.00 0.30 0.00 76 991.2
20211208085847 44 238 8.0 20.0 0.00 0.30 0.00 76 991.2
20211208084344 44 238 9.0 20.0 0.00 0.30 0.00 77 991.0
20211208083845 44 231 4.0 16.0 0.00 0.30 0.00 77 990.8
20211208083344 43 249 6.0 16.0 0.00 0.30 0.00 78 990.8
20211208082848 43 212 7.0 16.0 0.00 0.30 0.00 78 990.7
20211208081344 43 210 6.0 16.0 0.00 0.30 0.00 78 990.5
20211208080845 43 229 6.0 18.0 0.00 0.30 0.00 78 990.5
20211208074845 42 187 6.0 12.0 0.00 0.30 0.00 80 990.1
20211208074344 42 233 5.0 10.0 0.00 0.30 0.00 80 990.0
20211208073345 42 204 5.0 12.0 0.00 0.30 0.00 80 989.8
20211208072344 42 208 6.0 14.0 0.00 0.30 0.00 80 989.7
20211208071344 42 213 5.0 12.0 0.00 0.30 0.00 81 989.7
20211208070845 42 223 5.0 12.0 0.00 0.30 0.00 82 989.7
20211208070346 41 215 7.0 12.0 0.00 0.30 0.00 82 989.6
20211208065844 41 207 6.0 12.0 0.00 0.30 0.00 83 989.5
20211208064845 41 201 4.0 10.0 0.00 0.30 0.00 84 989.5
20211208063845 40 236 3.0 10.0 0.00 0.30 0.00 85 989.5
20211208063345 40 222 2.0 8.0 0.00 0.30 0.00 85 989.4
20211208062344 40 204 2.0 6.0 0.00 0.30 0.00 85 989.3
20211208061345 40 211 0.0 7.0 0.00 0.30 0.00 85 989.3
20211208060845 41 212 2.0 7.0 0.00 0.30 0.00 85 989.2
20211208060346 41 209 2.0 5.0 0.00 0.30 0.00 85 989.1
20211208055845 41 214 1.0 6.0 0.00 0.30 0.00 84 989.0
20211208055344 41 211 3.0 7.0 0.00 0.30 0.00 84 988.9
20211208054344 41 187 2.0 9.0 0.00 0.30 0.00 84 988.8
20211208053345 41 219 4.0 7.0 0.00 0.30 0.00 84 988.6
20211208051344 42 215 3.0 9.0 0.00 0.30 0.00 82 988.4
20211208050846 42 204 3.0 12.0 0.00 0.30 0.00 82 988.4
20211208050345 42 248 2.0 12.0 0.00 0.30 0.00 82 988.4
20211208045344 42 208 4.0 12.0 0.00 0.30 0.00 82 988.4
20211208044344 42 199 4.0 12.0 0.00 0.30 0.00 81 988.1
20211208043846 42 234 3.0 14.0 0.00 0.30 0.00 81 988.0
20211208043345 43 212 5.0 14.0 0.00 0.30 0.00 81 987.9
20211208042845 43 221 5.0 13.0 0.00 0.30 0.00 81 987.9
20211208042344 43 202 5.0 14.0 0.00 0.30 0.00 81 987.8
20211208041845 43 211 3.0 14.0 0.00 0.30 0.00 81 987.7
20211208041345 43 226 5.0 14.0 0.00 0.30 0.00 81 987.6
20211208040845 43 199 6.0 13.0 0.00 0.30 0.00 81 987.6
20211208035844 43 213 7.0 15.0 0.00 0.30 0.00 81 987.5
20211208035344 43 225 7.0 15.0 0.00 0.30 0.00 81 987.3
20211208033845 43 191 5.0 16.0 0.00 0.30 0.00 82 987.2
20211208032845 43 212 7.0 20.0 0.00 0.30 0.00 83 987.0
20211208032344 43 203 7.0 20.0 0.00 0.30 0.00 83 986.9
20211208031845 43 214 5.0 15.0 0.00 0.30 0.00 83 986.9
20211208031344 42 211 7.0 16.0 0.00 0.30 0.00 83 986.9
20211208030845 42 190 6.0 16.0 0.00 0.30 0.00 83 986.9
20211208030345 42 216 6.0 15.0 0.00 0.30 0.00 83 986.9
20211208025844 42 193 5.0 15.0 0.00 0.30 0.00 83 986.9
20211208025344 42 208 7.0 15.0 0.00 0.30 0.00 83 986.8
20211208024845 43 204 7.0 17.0 0.00 0.30 0.00 84 986.8
20211208024344 43 196 6.0 17.0 0.00 0.30 0.00 84 986.8
20211208023845 43 213 7.0 17.0 0.00 0.30 0.00 84 986.7
20211208023344 43 216 8.0 16.0 0.00 0.30 0.00 84 986.7
20211208022344 43 201 8.0 18.0 0.00 0.30 0.00 83 986.8
20211208021845 43 207 5.0 21.0 0.00 0.30 0.00 83 986.7
20211208021345 43 215 7.0 21.0 0.00 0.30 0.00 84 986.6
20211208020845 43 201 9.0 21.0 0.00 0.30 0.00 84 986.4
20211208020344 43 207 7.0 15.0 0.00 0.30 0.00 84 986.4
20211208015844 43 216 6.0 12.0 0.00 0.30 0.00 84 986.4
20211208015344 43 206 7.0 12.0 0.00 0.30 0.00 84 986.2
20211208014845 43 202 5.0 16.0 0.00 0.30 0.00 84 986.0
20211208014344 43 199 6.0 16.0 0.00 0.30 0.00 84 985.9
20211208013845 43 207 8.0 17.0 0.00 0.30 0.00 85 985.9
20211208013345 43 200 9.0 17.0 0.00 0.30 0.00 85 985.7
20211208012845 43 210 5.0 12.0 0.00 0.30 0.00 85 985.9
20211208010845 43 203 8.0 15.0 0.00 0.30 0.00 84 985.9
20211208010345 43 205 7.0 15.0 0.00 0.30 0.00 84 985.9
20211208005845 43 208 5.0 14.0 0.00 0.30 0.00 84 986.1
20211208004845 43 209 6.0 20.0 0.00 0.30 0.00 83 986.1
20211208002344 43 197 6.0 16.0 0.00 0.30 0.00 82 985.8
20211208001845 43 202 9.0 20.0 0.00 0.30 0.00 82 985.8
20211208001344 43 206 8.0 20.0 0.00 0.30 0.00 82 985.8
20211208000845 43 204 9.0 21.0 0.00 0.30 0.00 81 985.7
20211208000347 43 219 7.0 21.0 0.00 0.30 0.00 81 985.7
20211207235845 44 207 10.0 21.0 0.00 0.30 0.00 80 985.5
20211207235344 44 204 6.0 18.0 0.00 0.30 0.30 79 985.8
20211207234845 44 221 7.0 18.0 0.00 0.30 0.30 79 985.8
20211207234344 44 216 9.0 18.0 0.00 0.30 0.30 79 985.8
20211207233845 44 218 7.0 15.0 0.00 0.30 0.30 78 985.7
20211207232344 44 195 8.0 15.0 0.00 0.30 0.30 79 985.6
20211207231847 44 197 5.0 17.0 0.00 0.30 0.30 79 985.6
20211207231344 44 208 6.0 17.0 0.00 0.30 0.30 78 985.4
20211207230345 44 212 6.0 18.0 0.00 0.30 0.30 79 985.2
20211207224845 44 215 7.0 16.0 0.00 0.30 0.30 79 985.3
20211207224345 44 203 9.0 16.0 0.00 0.31 0.30 79 985.3
20211207223344 44 196 9.0 20.0 0.00 0.31 0.30 80 985.3
20211207222845 44 192 12.0 20.0 0.00 0.31 0.30 80 985.3
20211207222344 44 209 9.0 20.0 0.00 0.31 0.30 80 985.5